Flag for Greece Weather past 2 weeks in Santorini, Greece

Now
82 °F

Passing clouds.


Feels Like: 85 °F
Forecast: 76 / 79 °F
Wind: 15 mph from North

Location: Santorini Island

Current Time: Jul 25, 2014 at 10:53:29 AM

Latest Report: Jul 25, 2014 at 10:20 AM


Visibility: N/A

Pressure: 29.77 "Hg

Humidity: 62%

Dew point: 68 °F

Location of SantoriniLocation

Historic Weather in Santorini — Graph

°F

Santorini temperature yesterday

Maximum temperature yesterday: 86 °F (at 3:50 PM)
Minimum temperature yesterday: 75 °F (at 12:20 AM)
Average temperature yesterday: 80 °F

Past Weeks' High & Low Weather Summary

 TemperatureHumidityPressure
High91 °F (Jul 10, 2:50 PM)94% (Jul 16, 1:50 AM)29.92 "Hg (Jul 16, 1:50 AM)
Low68 °F (Jul 16, 3:50 AM)26% (Jul 10, 2:50 PM)29.68 "Hg (Jul 11, 12:50 AM)
Average79 °F65%29.79 "Hg
* Reported Jul 10 9:20 AM — Jul 25 9:20 AM, Santorini, Weather by CustomWeather, © 2014

Note: Actual official high and low records may vary slightly from our data, if they occured in-between our weather recording intervals... More about our weather records

Advertising

Santorini weather history for previous 24 hours

 ConditionsComfort  
Time TempWeatherWind HumidityBarometerVisibility
9:20 AM
Jul 25
79 °FSunny.15 mph70%29.74 "Hg10 mi
8:50 AM79 °FSunny.15 mph70%29.74 "Hg10 mi
8:20 AM77 °FSunny.10 mph79%29.74 "Hg10 mi
7:50 AM77 °FSunny.10 mph79%29.74 "Hg10 mi
7:20 AM73 °FSunny.6 mph83%29.74 "Hg10 mi
6:50 AM73 °FClear.6 mph83%29.74 "Hg10 mi
6:20 AM75 °FPassing clouds.6 mph74%29.74 "HgN/A
5:50 AM75 °FPassing clouds.6 mph74%29.74 "HgN/A
5:20 AM75 °FPassing clouds.12 mph78%29.74 "HgN/A
4:50 AM75 °FPassing clouds.12 mph78%29.74 "HgN/A
4:20 AM75 °FPassing clouds.9 mph83%29.74 "HgN/A
3:50 AM75 °FPassing clouds.8 mph83%29.74 "HgN/A
3:20 AM75 °FPassing clouds.8 mph83%29.74 "HgN/A
2:50 AM75 °FPassing clouds.9 mph89%29.74 "HgN/A
1:50 AM75 °FPassing clouds.13 mph89%29.74 "HgN/A
1:20 AM75 °FPassing clouds.7 mph89%29.77 "HgN/A
12:50 AM75 °FPassing clouds.7 mph89%29.77 "HgN/A
12:20 AM77 °FPassing clouds.9 mph83%29.77 "HgN/A
11:50 PM
Jul 24
77 °FPassing clouds.9 mph83%29.77 "HgN/A
11:20 PM77 °FPassing clouds.9 mph89%29.80 "HgN/A
10:50 PM77 °FPassing clouds.9 mph89%29.80 "HgN/A
10:20 PM77 °FPassing clouds.9 mph83%29.77 "HgN/A
9:50 PM77 °FPassing clouds.9 mph83%29.77 "HgN/A
9:20 PM79 °FPassing clouds.9 mph74%29.77 "HgN/A
8:50 PM79 °FPassing clouds.9 mph74%29.77 "HgN/A
8:20 PM81 °FSunny.9 mph74%29.77 "Hg10 mi
7:50 PM81 °FSunny.9 mph74%29.77 "Hg10 mi
7:20 PM84 °FSunny.9 mph51%29.77 "Hg10 mi
6:50 PM84 °FSunny.9 mph51%29.77 "Hg10 mi
5:50 PM84 °FSunny.12 mph55%29.74 "Hg10 mi
5:20 PM86 °FSunny.12 mph55%29.77 "Hg10 mi
4:50 PM86 °FSunny.12 mph55%29.77 "Hg10 mi
4:20 PM86 °FSunny.10 mph52%29.77 "Hg10 mi
3:50 PM86 °FSunny.10 mph52%29.77 "Hg10 mi
3:20 PM84 °FSunny.9 mph58%29.77 "Hg10 mi
2:50 PM84 °FSunny.9 mph58%29.77 "Hg10 mi
2:20 PM84 °FSunny.12 mph58%29.77 "Hg10 mi
1:50 PM84 °FSunny.12 mph58%29.77 "Hg10 mi
1:20 PM84 °FSunny.12 mph58%29.77 "Hg10 mi
12:50 PM84 °FSunny.12 mph58%29.77 "Hg10 mi
12:20 PM84 °FSunny.12 mph55%29.77 "Hg10 mi
11:50 AM84 °FSunny.12 mph55%29.77 "Hg10 mi
11:20 AM82 °FSunny.12 mph62%29.74 "Hg10 mi
10:50 AM82 °FSunny.12 mph62%29.74 "Hg10 mi
10:20 AM81 °FSunny.12 mph70%29.74 "Hg10 mi
Weather by CustomWeather, © 2014

See weather overviewHow to use our weather pages